Waarnemingen

Advertentie
Mijn weer
Schaffen, België (6465): temperatuur & dauwpunt: 11.10.2018 05:00:00 - 17.10.2018 05:00:00 (CEST)Schaffen, België (6465): windsnelheid & windstoten: 11.10.2018 05:00:00 - 17.10.2018 05:00:00 (CEST)Schaffen, België (6465): windrichting: 11.10.2018 05:00:00 - 17.10.2018 05:00:00 (CEST)Schaffen, België (6465): luchtdruk: 11.10.2018 05:00:00 - 17.10.2018 05:00:00 (CEST)Schaffen, België (6465): zicht: 11.10.2018 05:00:00 - 17.10.2018 05:00:00 (CEST)
Datum & Tijd tt [°C] td [°C] ff [km/u] ff [kn] fx [km/u] fx [kn] dd ppp [hPa] vv [km]
17.10.2018 05:00:00 11,1 9,7 4 2 - - N 1018,7 8
17.10.2018 04:00:00 13,0 10,0 7 4 14 8 WZW 1018,6 11
17.10.2018 03:00:00 11,8 9,9 7 4 7 4 N 1018,5 11
17.10.2018 02:00:00 12,3 10,4 4 2 - - N 1018,6 10
17.10.2018 01:00:00 12,8 10,4 7 4 11 6 Z 1018,5 13
17.10.2018 00:00:00 14,1 11,0 4 2 11 6 N 1018,6 13
16.10.2018 23:00:00 14,6 11,3 7 4 - - ZZO 1018,7 14
16.10.2018 22:00:00 15,8 11,4 7 4 11 6 ZZO 1018,7 18
16.10.2018 21:00:00 18,1 10,8 7 4 7 4 ZO 1018,6 20
16.10.2018 20:00:00 20,1 10,1 4 2 - - N 1018,3 20
16.10.2018 19:00:00 22,0 9,9 5 3 7 4 ZO 1018,1 2,8
16.10.2018 18:00:00 23,3 9,8 4 2 7 4 N 1017,7 19
16.10.2018 17:00:00 25,0 8,8 4 2 - - N 1017,7 20
16.10.2018 16:00:00 25,1 8,1 7 4 14 8 ZO 1017,8 20
16.10.2018 15:00:00 24,8 8,7 7 4 14 8 ZO 1017,8 20
16.10.2018 14:00:00 23,7 10,3 4 2 - - N 1018,2 15
16.10.2018 13:00:00 21,7 10,0 7 4 11 6 ZO 1018,6 15
16.10.2018 12:00:00 19,5 10,6 7 4 11 6 ZZO 1018,7 15
16.10.2018 11:00:00 16,8 10,9 7 4 - - N 1018,7 15
16.10.2018 10:00:00 13,2 10,3 4 2 7 4 N 1018,7 12
16.10.2018 09:00:00 10,8 8,9 4 2 11 6 N 1018,5 12
16.10.2018 08:00:00 9,6 8,8 7 4 - - Z 1018,0 8
16.10.2018 07:00:00 9,8 8,7 4 2 7 4 N 1017,7 8
16.10.2018 06:00:00 9,8 8,7 4 2 22 12 N 1017,7 8
16.10.2018 05:00:00 10,3 9,3 4 2 - - N 1017,1 7
16.10.2018 04:00:00 10,8 9,7 4 2 7 4 N 1017,1 6
16.10.2018 03:00:00 11,1 10,0 4 2 7 4 N 1016,8 8
16.10.2018 02:00:00 12,0 10,4 4 2 - - N 1016,5 11
16.10.2018 01:00:00 13,0 10,5 7 4 11 6 Z 1016,1 11
16.10.2018 00:00:00 13,2 10,7 7 4 11 6 ZZO 1015,7 13
15.10.2018 23:00:00 14,7 10,7 4 2 - - N 1015,6 20
15.10.2018 22:00:00 17,5 9,7 4 2 7 4 N 1015,1 20
15.10.2018 21:00:00 16,8 10,8 4 2 7 4 N 1014,7 20
15.10.2018 20:00:00 19,3 10,3 4 2 - - N 1014,3 20
15.10.2018 19:00:00 20,1 10,8 5 3 7 4 ZZO 1013,8 1,6
15.10.2018 18:00:00 22,6 10,2 7 4 14 8 N 1013,2 20
15.10.2018 17:00:00 23,6 10,0 7 4 - - Z 1012,7 20
15.10.2018 16:00:00 23,9 10,4 11 6 22 12 Z 1012,3 20
15.10.2018 15:00:00 24,0 10,5 11 6 22 12 Z 1012,3 20
15.10.2018 14:00:00 23,0 10,8 14 8 - - ZZW 1012,3 20
15.10.2018 13:00:00 21,1 10,5 11 6 25 14 Z 1012,7 20
15.10.2018 12:00:00 20,4 9,9 14 8 29 16 Z 1012,2 20
15.10.2018 11:00:00 20,7 9,8 14 8 - - Z 1011,8 20
15.10.2018 10:00:00 17,2 10,3 11 6 14 8 ZZO 1011,7 20
15.10.2018 09:00:00 16,5 9,5 11 6 14 8 ZZO 1011,1 20
15.10.2018 08:00:00 15,8 9,1 11 6 - - Z 1010,5 20
15.10.2018 07:00:00 16,0 8,8 11 6 14 8 ZZO 1009,8 20
15.10.2018 06:00:00 15,4 8,7 11 6 14 8 ZZO 1009,7 20
15.10.2018 05:00:00 15,6 8,6 11 6 - - ZZO 1009,5 20
15.10.2018 04:00:00 14,8 8,4 11 6 14 8 ZZO 1009,3 20
15.10.2018 03:00:00 14,8 8,2 11 6 14 8 Z 1009,5 20
15.10.2018 02:00:00 14,8 8,2 11 6 - - ZZO 1009,3 20
15.10.2018 01:00:00 15,8 7,8 7 4 11 6 ZZO 1009,1 20
15.10.2018 00:00:00 16,1 7,9 7 4 11 6 ZO 1008,8 20
14.10.2018 23:00:00 17,2 8,3 7 4 - - ZO 1008,7 20
14.10.2018 22:00:00 18,3 8,7 7 4 11 6 Z 1008,5 20
14.10.2018 21:00:00 18,7 9,9 7 4 11 6 ZZO 1008,1 20
14.10.2018 20:00:00 19,8 10,7 7 4 - - ZO 1007,7 20
14.10.2018 19:00:00 21,7 10,3 4 2 22 12 N 1007,6 20
14.10.2018 18:00:00 23,7 9,6 11 6 29 16 Z 1007,1 20
14.10.2018 17:00:00 24,5 9,5 14 8 - - Z 1007,1 20
14.10.2018 16:00:00 24,0 8,9 22 12 36 19 Z 1007,0 20
14.10.2018 15:00:00 24,3 8,6 18 10 43 23 Z 1007,2 20
14.10.2018 14:00:00 24,1 8,9 22 12 - - Z 1007,6 20
14.10.2018 13:00:00 22,2 9,8 25 14 40 21 Z 1008,2 20
14.10.2018 12:00:00 21,9 10,7 22 12 36 19 Z 1008,6 20
14.10.2018 11:00:00 20,2 11,8 18 10 - - Z 1008,8 20
14.10.2018 10:00:00 17,2 11,9 14 8 18 10 ZZO 1009,3 20
14.10.2018 09:00:00 15,0 11,3 7 4 11 6 ZZO 1009,5 19
14.10.2018 08:00:00 13,9 11,0 11 6 - - ZZO 1009,5 20
14.10.2018 07:00:00 14,4 11,1 11 6 14 8 ZZO 1009,7 20
14.10.2018 06:00:00 14,6 11,2 7 4 11 6 ZO 1010,1 20
14.10.2018 05:00:00 14,8 11,4 7 4 - - ZO 1010,2 20
14.10.2018 04:00:00 15,3 11,5 7 4 14 8 ZZO 1010,7 20
14.10.2018 03:00:00 15,6 11,7 7 4 14 8 ZO 1011,7 20
14.10.2018 02:00:00 16,2 11,8 7 4 - - ZZO 1012,2 20
14.10.2018 01:00:00 16,6 12,0 11 6 14 8 ZZO 1012,7 20
14.10.2018 00:00:00 17,2 12,3 7 4 14 8 ZZO 1013,3 20
13.10.2018 23:00:00 17,7 12,4 7 4 - - ZZO 1013,7 20
13.10.2018 22:00:00 18,8 12,6 7 4 14 8 ZZO 1013,7 20
13.10.2018 21:00:00 19,8 12,9 11 6 14 8 ZO 1013,5 20
13.10.2018 20:00:00 21,0 13,4 11 6 - - ZO 1013,8 20
13.10.2018 19:00:00 22,5 13,8 5 3 14 8 ZZO 1014,0 2,4
13.10.2018 18:00:00 24,5 13,8 11 6 22 12 Z 1014,1 20
13.10.2018 17:00:00 25,7 13,9 14 8 - - Z 1014,7 20
13.10.2018 16:00:00 25,7 13,8 18 10 29 16 Z 1015,5 20
13.10.2018 15:00:00 25,4 15,0 18 10 25 14 Z 1016,0 19
13.10.2018 14:00:00 25,1 15,1 14 8 - - ZZO 1016,8 20
13.10.2018 13:00:00 24,2 14,8 14 8 29 16 Z 1017,7 20
13.10.2018 12:00:00 22,8 14,3 18 10 25 14 Z 1018,2 20
13.10.2018 11:00:00 21,0 14,5 11 6 - - ZZO 1019,0 20
13.10.2018 10:00:00 18,1 13,9 14 8 18 10 ZZO 1019,1 20
13.10.2018 09:00:00 16,2 13,5 11 6 14 8 ZZO 1019,0 20
13.10.2018 08:00:00 15,3 13,4 11 6 - - ZZO 1019,1 20
13.10.2018 07:00:00 15,8 13,6 11 6 14 8 ZZO 1019,2 20
13.10.2018 06:00:00 16,3 13,7 11 6 18 10 Z 1019,5 20
13.10.2018 05:00:00 16,2 13,6 7 4 - - ZZO 1020,0 20
13.10.2018 04:00:00 16,6 13,5 7 4 18 10 Z 1019,8 20
13.10.2018 03:00:00 17,5 13,5 11 6 22 12 Z 1019,5 20
13.10.2018 02:00:00 17,5 13,5 11 6 - - Z 1019,2 20
13.10.2018 01:00:00 18,0 13,6 11 6 18 10 Z 1019,2 20
13.10.2018 00:00:00 17,9 13,9 11 6 14 8 Z 1019,6 20
12.10.2018 23:00:00 18,0 14,3 11 6 - - ZZO 1019,7 20
12.10.2018 22:00:00 19,0 14,7 11 6 14 8 Z 1019,7 20
12.10.2018 21:00:00 19,5 15,1 7 4 18 10 Z 1019,5 20
12.10.2018 20:00:00 20,0 15,4 11 6 - - Z 1019,2 20
12.10.2018 19:00:00 21,4 15,4 11 6 25 14 Z 1018,7 20
12.10.2018 18:00:00 22,7 15,5 14 8 32 18 Z 1018,5 20
12.10.2018 17:00:00 23,2 15,2 18 10 - - Z 1018,5 20
12.10.2018 16:00:00 23,5 15,0 18 10 32 18 Z 1018,5 20
12.10.2018 15:00:00 23,1 15,1 18 10 32 18 Z 1018,5 20
12.10.2018 14:00:00 22,6 15,0 18 10 - - Z 1018,7 20
12.10.2018 13:00:00 21,5 15,1 18 10 29 16 Z 1018,7 20
12.10.2018 12:00:00 20,3 15,2 18 10 36 19 Z 1018,5 20
12.10.2018 11:00:00 18,6 14,8 14 8 - - Z 1018,7 20
12.10.2018 10:00:00 16,6 14,2 7 4 18 10 Z 1018,6 20
12.10.2018 09:00:00 14,5 13,5 7 4 14 8 ZZO 1018,2 20
12.10.2018 08:00:00 14,5 13,3 11 6 - - Z 1017,5 20
12.10.2018 07:00:00 14,2 13,2 11 6 22 12 Z 1016,5 20
12.10.2018 06:00:00 15,3 13,8 11 6 25 14 Z 1016,0 15
12.10.2018 05:00:00 15,1 14,0 11 6 - - Z 1015,3 20
12.10.2018 04:00:00 15,1 14,0 11 6 18 10 Z 1014,8 20
12.10.2018 03:00:00 16,3 14,4 14 8 22 12 Z 1014,2 20
12.10.2018 02:00:00 16,0 15,0 11 6 - - Z 1013,7 20
12.10.2018 01:00:00 19,2 12,4 22 12 47 25 ZZW 1013,8 17
12.10.2018 00:00:00 17,2 12,0 11 6 18 10 ZZO 1012,2 20
11.10.2018 23:00:00 17,3 12,2 11 6 - - ZZO 1012,0 20
11.10.2018 22:00:00 17,3 12,6 11 6 18 10 ZZO 1011,8 20
11.10.2018 21:00:00 18,5 12,9 11 6 14 8 ZO 1011,7 20
11.10.2018 20:00:00 19,5 13,1 11 6 - - ZZO 1011,7 20
11.10.2018 19:00:00 21,2 13,2 14 8 25 14 Z 1011,1 20
11.10.2018 18:00:00 23,1 13,0 14 8 29 16 Z 1010,7 20
11.10.2018 17:00:00 24,1 12,5 14 8 - - Z 1010,2 20
11.10.2018 16:00:00 24,2 12,2 22 12 40 21 Z 1010,1 20
11.10.2018 15:00:00 24,6 12,4 14 8 40 21 Z 1010,2 20
11.10.2018 14:00:00 23,5 12,5 18 10 - - Z 1010,6 20
11.10.2018 13:00:00 21,5 13,5 14 8 25 14 Z 1011,0 20
11.10.2018 12:00:00 18,3 13,5 11 6 18 10 ZZO 1011,5 20
11.10.2018 11:00:00 17,0 13,4 11 6 - - ZZO 1011,8 20
11.10.2018 10:00:00 16,3 12,6 11 6 14 8 ZZO 1011,7 20
11.10.2018 09:00:00 14,8 12,1 7 4 18 10 ZZO 1011,7 13
11.10.2018 08:00:00 13,6 11,6 4 2 - - N 1011,2 11
11.10.2018 07:00:00 12,8 11,3 7 4 11 6 ZZO 1011,0 9
11.10.2018 06:00:00 13,3 11,4 7 4 14 8 ZO 1010,6 10
11.10.2018 05:00:00 13,1 11,3 7 4 - - ZO 1010,7 10

tt = temperatuur
td = dauwpunt
ff = windsnelheid
fx = windstoten
dd = windrichting
ppp = luchtdruk
vv = zicht

Weerstations in de omgeving